Вернуться в каталог

FENGYUN 1C DEB

АктивенSSO
NORAD 30247·DEBRIS·🇨🇳 China

Запущен May 10, 1999 с Taiyuan Satellite Launch Center

Loading…

Ближайшие Пролёты (ближайшие 24 часа)

TLE

СвежийSource: Space-Track

Эпоха: Sep 14, 2026, 00:13 UTC

1 30247U 99025XG  26257.00970999  .00007521  00000-0  10835-2 0  9990
2 30247  98.2632 170.3748 0168693 208.6811 283.9634 14.67307727 13099

Отслеживайте FENGYUN 1C DEB в реальном времени с AllMySat

Download on the App Store